• In Netherlands
  • List of Countries
  • For 7 days
  • Water Temperature
  • Satellite Maps
  • Weather Map
  • Weather Widgets
  • user-avatar
    Login

    Hourly Weather Mons

    Today, 28 March, Tuesday

    Time Temperature Precipitation Wind Pressure Humidity
    00:00 +9°C° 0 mm 2 mps 762 mmHg 89%
    01:00 +9°C° 0 mm 2 mps 762 mmHg 90%
    02:00 +9°C° 0 mm 2 mps 762 mmHg 91%
    03:00 +9°C° 0 mm 2 mps 762 mmHg 92%
    04:00 +9°C° 0 mm 2 mps 762 mmHg 92%
    05:00 +8°C° 0 mm 2 mps 762 mmHg 93%
    06:00 +8°C° 0 mm 2 mps 762 mmHg 94%
    07:00 +10°C° 0 mm 3 mps 763 mmHg 89%
    08:00 +12°C° 0 mm 3 mps 763 mmHg 84%
    09:00 +14°C° 0 mm 3 mps 763 mmHg 79%
    10:00 +15°C° 0 mm 4 mps 763 mmHg 74%
    11:00 +17°C° 0 mm 4 mps 763 mmHg 69%
    12:00 +17°C° 0 mm 5 mps 763 mmHg 64%
    13:00 +17°C° 0.1 mm 5 mps 763 mmHg 63%
    14:00 +17°C° 0.1 mm 5 mps 763 mmHg 63%
    15:00 +17°C° 0.1 mm 5 mps 763 mmHg 63%
    16:00 +17°C° 0.3 mm 4 mps 763 mmHg 71%
    17:00 +14°C° 0.3 mm 4 mps 763 mmHg 78%
    18:00 +13°C° 0.3 mm 3 mps 764 mmHg 86%
    19:00 +12°C° 0.1 mm 3 mps 764 mmHg 88%
    20:00 +11°C° 0.1 mm 3 mps 764 mmHg 91%
    21:00 +10°C° 0.1 mm 3 mps 765 mmHg 93%
    22:00 +10°C° 0 mm 3 mps 765 mmHg 94%
    23:00 +9°C° 0 mm 3 mps 765 mmHg 95%

    Tomorrow, 29 March, Wednesday

    Time Temperature Precipitation Wind Pressure Humidity
    00:00 +9°C° 0 mm 3 mps 765 mmHg 95%
    01:00 +9°C° 0 mm 3 mps 765 mmHg 96%
    02:00 +9°C° 0 mm 3 mps 765 mmHg 96%
    03:00 +8°C° 0 mm 3 mps 765 mmHg 96%
    04:00 +9°C° 0 mm 3 mps 765 mmHg 95%
    05:00 +8°C° 0 mm 4 mps 766 mmHg 95%
    06:00 +8°C° 0 mm 4 mps 766 mmHg 94%
    07:00 +10°C° 0 mm 4 mps 766 mmHg 91%
    08:00 +11°C° 0 mm 4 mps 766 mmHg 88%
    09:00 +12°C° 0 mm 5 mps 767 mmHg 84%
    10:00 +13°C° 0 mm 5 mps 766 mmHg 83%
    11:00 +13°C° 0 mm 5 mps 766 mmHg 81%
    12:00 +14°C° 0 mm 5 mps 766 mmHg 79%
    13:00 +15°C° 0.1 mm 4 mps 766 mmHg 78%
    14:00 +15°C° 0.1 mm 4 mps 766 mmHg 77%
    15:00 +17°C° 0.1 mm 4 mps 766 mmHg 76%
    16:00 +16°C° 0 mm 3 mps 766 mmHg 80%
    17:00 +14°C° 0 mm 3 mps 766 mmHg 84%
    18:00 +14°C° 0 mm 2 mps 766 mmHg 88%
    19:00 +13°C° 0 mm 2 mps 766 mmHg 89%
    20:00 +12°C° 0 mm 3 mps 766 mmHg 90%
    21:00 +12°C° 0 mm 3 mps 766 mmHg 92%
    22:00 +11°C° 0 mm 3 mps 766 mmHg 91%
    23:00 +11°C° 0 mm 3 mps 767 mmHg 91%

    Day after tomorrow, 30 March, Thursday

    Time Temperature Precipitation Wind Pressure Humidity
    00:00 +11°C° 0 mm 3 mps 767 mmHg 91%
    01:00 +11°C° 0 mm 3 mps 766 mmHg 90%
    02:00 +11°C° 0 mm 3 mps 766 mmHg 90%
    03:00 +11°C° 0 mm 3 mps 766 mmHg 89%
    04:00 +10°C° 0 mm 3 mps 766 mmHg 89%
    05:00 +10°C° 0 mm 3 mps 766 mmHg 89%
    06:00 +10°C° 0 mm 3 mps 766 mmHg 89%
    07:00 +12°C° 0 mm 4 mps 766 mmHg 84%
    08:00 +14°C° 0 mm 4 mps 766 mmHg 79%
    09:00 +15°C° 0 mm 4 mps 766 mmHg 73%
    10:00 +17°C° 0 mm 4 mps 766 mmHg 70%
    11:00 +19°C° 0 mm 4 mps 765 mmHg 66%
    12:00 +20°C° 0 mm 4 mps 765 mmHg 63%
    13:00 +20°C° 0 mm 4 mps 764 mmHg 63%
    14:00 +20°C° 0 mm 4 mps 764 mmHg 62%
    15:00 +20°C° 0 mm 4 mps 763 mmHg 62%
    16:00 +19°C° 0 mm 4 mps 763 mmHg 69%
    17:00 +17°C° 0 mm 3 mps 763 mmHg 76%
    18:00 +16°C° 0 mm 3 mps 762 mmHg 82%
    19:00 +14°C° 0 mm 3 mps 762 mmHg 84%
    20:00 +13°C° 0 mm 3 mps 762 mmHg 86%
    21:00 +12°C° 0 mm 4 mps 762 mmHg 88%
    22:00 +12°C° 0 mm 4 mps 762 mmHg 89%
    23:00 +12°C° 0 mm 4 mps 761 mmHg 90%

    31 March, Friday

    Time Temperature Precipitation Wind Pressure Humidity
    00:00 +11°C° 0 mm 4 mps 761 mmHg 91%
    01:00 +11°C° 0 mm 4 mps 760 mmHg 92%
    02:00 +11°C° 0 mm 4 mps 760 mmHg 92%
    03:00 +11°C° 0 mm 4 mps 759 mmHg 93%
    04:00 +11°C° 0 mm 4 mps 759 mmHg 91%
    05:00 +11°C° 0 mm 4 mps 759 mmHg 90%
    06:00 +9°C° 0 mm 5 mps 759 mmHg 89%
    07:00 +12°C° 0 mm 5 mps 758 mmHg 83%
    08:00 +13°C° 0 mm 6 mps 758 mmHg 77%
    09:00 +15°C° 0 mm 6 mps 758 mmHg 71%
    10:00 +15°C° 0 mm 6 mps 758 mmHg 68%
    11:00 +16°C° 0 mm 7 mps 758 mmHg 65%
    12:00 +17°C° 0 mm 7 mps 758 mmHg 62%
    13:00 +17°C° 0 mm 7 mps 758 mmHg 66%
    14:00 +16°C° 0 mm 7 mps 758 mmHg 71%
    15:00 +16°C° 0 mm 7 mps 757 mmHg 75%
    16:00 +15°C° 0.1 mm 6 mps 758 mmHg 80%
    17:00 +14°C° 0.1 mm 5 mps 758 mmHg 84%
    18:00 +13°C° 0.1 mm 4 mps 758 mmHg 89%
    19:00 +12°C° 0 mm 4 mps 758 mmHg 91%
    20:00 +11°C° 0 mm 3 mps 758 mmHg 93%
    21:00 +10°C° 0 mm 3 mps 759 mmHg 95%
    22:00 +10°C° 0 mm 3 mps 759 mmHg 95%
    23:00 +10°C° 0 mm 3 mps 759 mmHg 96%

    1 April, Saturday

    Time Temperature Precipitation Wind Pressure Humidity
    00:00 +9°C° 0 mm 3 mps 759 mmHg 96%
    01:00 +9°C° 0 mm 3 mps 758 mmHg 96%
    02:00 +9°C° 0 mm 3 mps 758 mmHg 96%
    03:00 +8°C° 0 mm 3 mps 758 mmHg 96%
    04:00 +8°C° 0 mm 3 mps 758 mmHg 96%
    05:00 +8°C° 0 mm 3 mps 758 mmHg 96%
    06:00 +7°C° 0 mm 3 mps 758 mmHg 96%
    07:00 +9°C° 0 mm 3 mps 758 mmHg 89%
    08:00 +11°C° 0 mm 4 mps 759 mmHg 82%
    09:00 +12°C° 0 mm 5 mps 759 mmHg 75%
    10:00 +13°C° 0 mm 4 mps 759 mmHg 70%
    11:00 +14°C° 0 mm 4 mps 758 mmHg 65%
    12:00 +15°C° 0 mm 4 mps 758 mmHg 60%
    13:00 +17°C° 0 mm 4 mps 758 mmHg 59%
    14:00 +17°C° 0 mm 3 mps 758 mmHg 59%
    15:00 +17°C° 0 mm 3 mps 758 mmHg 58%
    16:00 +14°C° 0 mm 3 mps 759 mmHg 66%
    17:00 +14°C° 0 mm 2 mps 759 mmHg 75%
    18:00 +12°C° 0 mm 1 mps 759 mmHg 83%
    19:00 +11°C° 0 mm 1 mps 760 mmHg 85%
    20:00 +10°C° 0 mm 1 mps 760 mmHg 87%
    21:00 +10°C° 0 mm 1 mps 761 mmHg 89%
    22:00 +9°C° 0 mm 1 mps 761 mmHg 91%
    23:00 +9°C° 0 mm 1 mps 762 mmHg 92%

    2 April, Sunday

    Time Temperature Precipitation Wind Pressure Humidity
    00:00 +8°C° 0 mm 1 mps 762 mmHg 93%
    01:00 +8°C° 0 mm 1 mps 762 mmHg 93%
    02:00 +8°C° 0 mm 1 mps 762 mmHg 94%
    03:00 +7°C° 0 mm 1 mps 763 mmHg 94%
    04:00 +7°C° 0 mm 1 mps 763 mmHg 94%
    05:00 +8°C° 0 mm 1 mps 763 mmHg 94%
    06:00 +8°C° 0 mm 1 mps 764 mmHg 94%
    07:00 +9°C° 0 mm 2 mps 764 mmHg 87%
    08:00 +12°C° 0 mm 2 mps 764 mmHg 80%
    09:00 +14°C° 0 mm 2 mps 765 mmHg 73%
    10:00 +15°C° 0 mm 2 mps 765 mmHg 69%
    11:00 +16°C° 0 mm 3 mps 765 mmHg 64%
    12:00 +17°C° 0 mm 3 mps 765 mmHg 60%
    13:00 +17°C° 0 mm 3 mps 765 mmHg 61%
    14:00 +17°C° 0 mm 3 mps 765 mmHg 63%
    15:00 +17°C° 0 mm 3 mps 765 mmHg 64%
    16:00 +16°C° 0 mm 3 mps 765 mmHg 71%
    17:00 +14°C° 0 mm 2 mps 766 mmHg 78%
    18:00 +13°C° 0 mm 2 mps 766 mmHg 85%
    19:00 +12°C° 0 mm 2 mps 766 mmHg 87%
    20:00 +10°C° 0 mm 2 mps 767 mmHg 89%
    21:00 +9°C° 0 mm 2 mps 767 mmHg 91%
    22:00 +9°C° 0 mm 1 mps 767 mmHg 92%
    23:00 +8°C° 0 mm 1 mps 767 mmHg 93%
    Show more